Theta_e
327 327 326 325 324 322 320 318 316 315 313 311 309 307 305 305 305 306 306 305 305 305 305 304 304 304 304 304 303 303 302 302 301 301 299 297 296 295 295 295 295 295 294 294 294 293 292 292 292 293 293 293 293 293 293 293 293 293 293 293 293 293 293 293 293 294 293 292 293 293 292 292 292 292 293 293 294 294 294 294 294 294 294 294 294
325 325 324 324 323 321 319 317 315 314 311 309 308 306 305 305 305 305 305 305 305 304 304 304 304 304 304 303 303 303 302 302 301 300 298 295 295 295 295 296 296 295 294 294 294 293 292 292 293 293 293 294 294 294 294 293 293 293 292 292 292 292 292 292 292 293 293 292 292 292 292 292 292 292 293 293 293 293 293 293 293 293 294 294 294
324 324 324 322 321 320 318 316 314 312 310 308 307 306 305 304 304 305 305 305 304 304 304 304 304 303 303 303 303 303 302 302 301 300 298 296 296 296 296 297 296 296 295 295 294 294 292 292 293 293 294 294 294 294 294 293 292 292 291 291 291 291 291 292 292 292 292 292 292 292 291 291 292 292 293 293 293 293 293 293 293 293 293 294 294
322 322 321 320 319 318 316 314 312 310 309 307 306 306 305 304 304 304 304 304 304 304 304 303 303 303 303 303 303 302 302 302 301 300 299 297 297 297 297 297 297 296 296 295 295 294 293 293 294 294 294 294 294 294 293 293 292 291 291 291 291 290 290 290 291 291 292 292 291 291 291 291 292 292 293 293 293 293 293 293 293 293 293 293 294
320 320 319 317 316 315 314 312 311 309 307 306 306 305 305 304 304 304 303 303 303 304 304 303 303 303 303 303 303 302 302 301 301 300 299 298 298 298 298 297 297 297 296 296 295 294 293 293 294 294 294 294 294 294 293 292 292 291 291 290 290 290 290 290 290 290 291 291 291 291 291 291 292 292 292 292 292 292 293 293 293 293 293 293 294
318 317 316 316 314 313 312 311 309 308 307 306 305 305 305 304 304 303 303 303 303 303 303 304 303 303 303 303 302 302 302 301 301 300 299 298 298 298 298 298 297 297 296 296 295 294 293 293 294 294 294 294 294 294 293 292 292 291 291 290 289 289 289 289 289 290 290 290 290 291 291 291 291 292 292 292 292 292 292 293 293 293 293 293 294
316 315 315 314 313 312 311 310 309 308 307 306 305 305 304 304 304 303 303 302 301 302 303 303 303 303 303 303 303 302 302 301 301 300 300 299 299 299 299 298 297 297 296 296 296 294 293 293 294 294 294 294 294 294 293 292 292 291 290 290 289 289 289 289 289 289 290 290 290 290 291 291 291 291 292 292 292 292 292 293 293 293 293 293 294
315 314 314 313 313 311 310 309 308 307 306 305 305 304 304 304 303 302 302 300 299 299 302 303 303 303 303 303 303 303 302 302 301 300 300 300 299 299 299 299 298 297 297 296 296 294 293 294 294 294 294 294 294 293 292 292 292 291 290 289 289 289 289 289 289 289 289 290 290 290 290 291 291 291 291 291 292 292 292 292 292 293 293 293 294
314 314 313 312 312 310 309 308 307 306 306 305 304 304 303 303 303 302 302 300 296 296 300 302 303 303 303 303 303 303 302 302 301 300 300 299 299 299 299 299 298 298 297 296 296 295 294 294 294 294 294 294 293 293 292 292 292 291 290 289 289 289 289 289 289 289 289 290 290 290 290 291 291 291 291 291 292 292 292 292 292 293 293 293 294
314 313 312 312 311 309 308 307 306 305 305 304 304 303 303 302 302 302 300 297 294 294 298 301 302 303 303 303 302 302 302 301 301 300 299 299 299 298 299 299 298 298 297 296 296 295 295 295 294 294 294 294 293 292 292 292 291 291 289 289 289 289 289 289 289 289 289 289 290 290 290 290 290 290 291 291 291 291 291 292 292 293 293 294 294
313 312 312 311 310 308 307 306 305 305 304 304 303 303 303 302 302 300 296 294 293 294 297 299 301 302 303 302 302 302 302 301 300 300 300 299 299 298 298 298 298 298 297 296 296 296 295 294 294 294 295 294 293 292 292 292 291 290 289 288 289 290 290 289 289 289 289 289 290 290 290 290 290 290 290 291 291 291 291 292 292 293 293 294 294
312 311 311 310 309 307 306 305 305 304 303 303 303 302 302 302 300 297 294 293 294 294 296 299 301 302 302 302 302 302 301 301 301 300 300 299 299 298 298 298 297 298 297 297 296 296 296 294 293 294 294 293 292 292 292 291 290 289 289 288 289 291 291 291 290 290 289 289 290 290 290 290 290 290 290 290 291 291 291 292 292 293 293 294 294
311 310 310 309 308 306 306 305 304 303 303 303 302 302 301 301 300 296 293 293 294 295 296 298 300 301 301 301 301 301 301 301 301 300 300 299 299 299 298 298 298 297 297 297 296 296 296 294 294 294 294 293 292 292 292 291 290 289 289 289 289 291 292 292 292 291 291 290 290 290 291 290 290 290 290 290 290 291 291 292 292 293 293 294 294
310 309 308 308 307 305 305 304 303 303 303 302 302 302 301 301 299 295 293 293 294 295 296 298 299 300 301 301 301 301 300 300 300 300 300 299 299 299 299 299 298 297 297 297 296 296 296 294 294 295 294 293 292 292 291 290 289 289 289 289 289 290 291 292 293 293 293 292 291 291 292 291 290 291 291 290 290 291 291 291 292 293 293 293 294
308 308 307 307 306 305 304 304 303 302 302 302 302 302 302 300 297 294 293 293 294 294 296 297 298 299 300 300 300 300 300 299 299 299 299 299 299 299 299 299 298 298 297 297 297 296 295 294 294 295 294 293 292 292 291 289 288 288 288 289 289 289 290 292 292 293 293 293 293 292 292 292 291 291 291 291 290 291 291 291 292 293 293 293 294
307 307 306 305 305 304 304 303 303 302 302 302 302 302 301 298 295 293 293 293 294 295 296 297 298 298 299 299 299 299 299 298 298 299 298 298 298 298 298 298 298 298 297 297 297 296 294 294 295 295 294 293 292 291 290 288 288 288 288 288 288 289 289 290 291 292 293 293 293 293 293 293 293 292 292 291 291 291 291 291 292 292 293 293 294
306 306 305 305 304 304 304 303 303 302 302 301 302 301 300 297 294 292 292 293 294 295 296 297 298 298 298 298 298 298 298 298 297 296 295 294 295 296 298 298 298 297 297 297 296 295 294 295 295 294 293 292 292 291 289 288 289 289 288 288 288 288 289 289 290 291 292 293 294 294 294 293 293 293 293 292 291 291 291 291 292 292 293 293 293
306 305 305 304 304 303 303 303 303 302 302 301 302 300 299 298 295 293 292 293 293 294 295 296 297 297 298 298 298 297 296 295 293 292 292 292 294 295 297 297 297 297 297 297 295 294 294 295 295 294 293 292 292 290 289 289 290 290 289 288 288 288 288 288 290 291 292 292 293 294 294 294 293 293 293 292 292 291 291 291 291 292 292 293 293
306 305 304 303 303 303 303 303 302 302 301 302 301 300 299 299 296 293 292 293 293 294 295 296 297 297 297 297 296 294 293 291 291 290 291 292 293 294 296 297 297 297 297 297 295 294 294 295 294 294 293 292 292 290 290 290 291 291 290 289 289 288 288 288 289 290 292 292 293 293 293 293 293 293 293 292 292 292 291 291 291 292 292 293 293
306 305 304 303 304 304 303 303 303 302 302 301 301 300 300 299 297 293 292 293 293 293 294 294 294 294 294 293 292 291 290 290 290 290 290 291 291 293 294 295 296 296 296 296 295 294 295 295 294 294 293 292 292 291 291 291 292 292 292 291 289 289 288 288 288 290 291 292 292 292 293 293 293 293 292 292 292 292 292 291 291 292 292 292 292
306 305 304 304 304 303 303 303 303 302 302 302 301 301 300 300 297 293 292 292 292 292 292 291 291 291 290 290 290 290 290 290 289 290 290 290 291 292 292 293 294 295 295 295 294 294 295 294 294 294 293 293 292 292 292 292 292 292 292 292 291 290 290 289 288 288 290 292 292 292 292 292 292 292 292 292 292 292 292 292 292 292 292 292 292
306 305 304 304 303 303 303 303 303 302 302 302 302 301 300 300 298 294 292 291 291 291 291 290 290 290 290 290 290 290 290 290 289 289 290 291 292 292 293 293 293 294 294 294 295 295 294 294 294 294 294 293 293 293 293 293 293 293 293 293 292 292 292 291 289 288 288 290 291 292 292 292 292 292 292 292 291 291 292 292 292 292 292 292 292
306 305 305 304 303 302 302 302 302 302 302 303 302 301 300 300 299 295 292 291 291 292 293 293 293 293 293 292 291 291 290 290 290 289 290 291 292 293 293 294 294 294 294 295 295 295 295 295 294 294 294 294 293 293 293 293 293 293 293 293 293 293 293 292 291 290 288 288 289 291 291 291 291 291 291 291 291 291 292 292 292 292 292 292 292
305 305 304 303 303 302 302 302 302 302 302 302 302 302 301 300 299 296 292 291 293 295 296 296 296 296 296 295 294 294 292 291 290 289 290 291 293 293 293 294 294 294 295 295 295 295 295 295 294 294 294 294 294 294 293 293 293 293 293 293 293 293 293 293 292 291 289 288 288 289 290 291 291 291 291 291 291 291 292 293 293 292 292 292 292
305 304 304 303 303 302 302 302 302 301 302 302 302 302 301 301 300 297 293 292 295 297 297 297 297 297 297 297 297 296 295 293 292 290 289 291 293 293 294 294 294 294 295 295 295 295 295 295 295 294 294 294 294 294 293 293 293 293 293 293 293 293 293 293 292 292 290 289 288 288 289 291 291 291 291 292 292 291 291 292 293 293 292 291 292
305 304 303 302 302 302 302 302 301 301 302 302 302 302 302 301 301 299 295 293 294 296 296 296 297 297 298 298 298 298 297 296 295 292 290 290 292 294 294 294 294 295 294 294 295 295 295 295 295 295 294 294 294 294 293 293 293 293 293 293 293 294 293 293 293 292 291 290 288 288 288 290 291 292 292 292 292 291 290 291 292 292 292 292 291
304 303 302 302 302 301 301 301 301 301 301 301 301 302 302 301 301 301 299 296 295 295 296 296 296 297 297 298 299 299 298 298 297 296 292 290 290 292 294 294 294 294 294 294 295 295 295 295 295 295 295 294 294 294 294 293 293 293 293 293 294 294 293 293 293 292 291 291 290 288 288 289 290 291 292 292 292 291 290 290 291 292 292 292 291
304 303 302 302 301 301 301 301 300 300 300 301 301 301 301 301 301 301 301 300 298 296 296 296 297 297 298 298 299 299 299 299 299 298 296 293 290 291 293 294 294 294 294 294 294 295 295 295 295 295 295 294 294 294 294 293 293 293 293 293 294 294 294 294 293 293 292 292 291 290 288 288 289 291 291 291 291 291 290 290 290 291 292 292 291
304 303 302 301 301 301 300 300 300 300 300 300 301 301 301 301 301 301 301 301 299 296 295 297 297 298 299 299 299 299 299 299 299 299 298 296 293 291 292 293 294 294 294 294 295 295 295 295 295 295 295 294 294 294 294 294 294 293 293 293 293 294 294 294 294 293 293 292 292 291 289 288 288 290 291 291 291 291 291 290 290 291 291 292 292
303 302 301 301 301 300 300 300 300 300 300 300 300 300 300 300 300 298 298 298 298 296 296 298 299 299 299 299 299 300 299 299 299 299 299 298 295 292 291 292 294 294 294 294 294 295 295 295 295 295 295 295 294 294 294 294 294 294 293 293 293 293 294 294 294 293 293 292 292 291 290 288 288 289 290 290 291 291 291 290 290 290 291 291 291
302 302 301 301 301 300 300 300 300 300 300 300 300 299 299 299 299 297 295 295 296 296 297 299 299 299 300 300 299 300 300 299 299 299 299 299 297 293 291 291 293 294 294 294 294 295 295 295 295 295 295 295 295 295 294 294 294 294 294 293 293 293 293 294 294 294 293 293 292 292 291 289 288 289 289 290 290 291 291 291 290 290 290 291 291
303 302 301 301 301 300 300 300 300 300 299 299 299 299 299 299 298 297 296 296 296 297 298 299 299 299 300 299 299 300 300 300 300 299 299 298 297 295 292 291 291 293 293 293 294 295 295 295 295 295 295 295 295 295 295 294 294 294 294 294 294 293 293 293 294 294 293 293 292 292 291 290 289 289 289 290 290 290 290 290 290 289 289 290 291
304 302 301 301 301 300 300 300 300 299 299 299 299 299 299 299 298 298 298 298 298 299 299 299 300 300 299 299 299 300 300 301 300 299 298 298 297 296 293 290 290 291 292 292 293 294 295 295 296 296 295 295 295 295 295 295 295 295 294 294 294 294 293 293 293 294 294 293 293 292 292 291 290 289 289 289 290 289 290 290 290 289 289 289 290
304 303 302 301 300 300 300 300 300 300 299 299 299 299 299 299 299 298 298 298 298 299 299 299 299 300 300 300 300 300 301 301 300 299 298 298 297 296 293 291 290 290 290 291 293 294 295 295 296 296 296 295 295 296 296 295 295 295 295 295 295 294 294 293 293 293 294 294 293 293 292 292 291 290 289 290 290 289 289 289 289 289 288 288 289
304 303 302 301 301 300 301 300 300 300 300 299 299 299 299 299 299 299 299 299 298 298 299 299 299 300 300 300 300 300 301 301 300 299 298 297 297 296 293 290 290 290 290 290 291 293 294 295 296 296 296 296 296 296 296 296 296 296 295 295 295 295 294 294 294 293 293 294 294 293 293 292 291 291 290 290 290 289 289 289 289 289 288 288 289
303 302 302 301 301 301 301 300 300 300 300 299 299 299 299 299 299 299 299 299 299 298 298 299 299 300 300 300 301 300 300 300 299 298 298 297 297 295 293 291 290 290 290 290 291 292 294 295 295 296 296 296 296 296 296 296 296 296 296 295 295 295 295 294 294 294 293 293 294 293 293 292 292 291 291 290 290 290 289 289 289 289 288 288 289
303 302 302 301 301 301 301 301 300 300 300 300 300 299 299 299 299 299 299 299 299 299 299 299 300 300 301 301 300 300 299 299 299 298 297 296 295 293 292 290 290 290 290 290 291 292 293 295 295 296 296 296 296 296 296 296 296 296 296 296 296 295 295 295 295 294 294 293 293 293 293 293 292 292 291 291 291 290 290 289 289 289 289 289 289
303 303 302 301 301 301 301 301 300 300 300 300 300 300 299 299 299 299 299 299 299 298 298 299 300 301 301 301 300 299 298 298 297 297 296 294 293 291 291 290 290 290 290 290 291 291 293 294 295 295 295 296 296 296 296 296 296 296 296 296 296 296 295 295 295 295 294 294 293 293 293 293 293 292 292 291 291 291 290 290 289 289 290 289 288
303 302 302 301 301 301 301 301 301 300 300 300 300 299 299 299 299 299 299 299 298 298 298 299 300 301 301 301 300 298 297 296 296 296 296 294 292 291 290 290 290 290 291 291 291 291 293 294 295 295 295 296 296 296 296 296 296 296 296 296 296 296 296 296 295 295 295 294 294 294 293 293 293 293 292 292 291 291 291 290 290 290 290 290 289
303 302 302 301 301 301 301 301 301 300 300 300 299 299 299 299 299 299 298 298 298 298 298 299 300 301 301 300 299 298 297 296 296 297 297 295 293 291 291 291 291 291 292 293 293 293 294 295 296 296 296 296 296 295 295 296 296 297 296 296 296 296 296 296 296 296 295 295 294 294 294 293 293 293 293 293 292 291 291 291 291 290 290 290 290
303 302 302 301 301 301 301 301 300 300 300 300 299 299 299 299 299 299 298 298 298 298 298 299 300 301 301 300 300 299 298 298 298 298 297 296 293 292 291 291 291 292 294 295 296 296 296 296 297 296 296 296 296 295 295 296 296 297 297 296 297 296 296 296 296 296 296 295 295 295 294 294 293 293 293 293 293 292 292 292 291 291 291 291 291
303 302 302 301 301 301 301 301 300 300 300 300 299 299 299 299 299 298 298 298 298 298 298 300 301 301 301 301 300 299 299 299 298 297 296 294 293 292 291 292 293 294 296 297 297 297 297 298 298 298 297 297 297 296 295 296 296 296 296 297 297 297 297 296 296 296 296 296 296 295 294 294 294 293 293 293 293 293 293 292 292 291 292 291 291
303 302 302 301 302 301 301 301 301 300 299 299 299 299 300 299 299 299 298 297 297 298 299 300 301 301 301 301 300 299 298 297 296 294 293 292 292 292 293 295 296 297 297 298 298 298 298 298 298 298 298 298 297 296 296 296 296 296 296 297 297 297 297 297 297 296 296 296 296 296 295 295 294 294 293 293 293 293 293 293 292 292 292 292 292
303 302 302 302 302 301 301 301 300 300 300 300 300 300 300 299 299 299 298 297 297 298 299 301 301 301 301 300 299 298 297 296 295 295 294 293 293 294 296 297 298 298 298 299 299 299 299 299 299 299 299 298 297 297 297 297 297 297 297 297 297 297 297 297 297 297 297 296 296 296 295 295 295 294 294 294 293 293 293 293 293 292 292 292 292
303 302 302 302 301 301 301 301 300 300 300 300 299 299 299 299 298 298 298 297 297 298 300 301 301 300 299 299 298 297 297 297 297 298 297 296 297 298 299 299 299 299 299 299 299 299 299 299 298 298 298 298 298 297 297 297 297 297 297 297 297 297 297 297 298 297 297 296 296 295 295 295 295 295 294 294 294 293 293 294 293 293 292 292 292
303 302 302 302 302 301 301 301 301 300 300 300 299 299 299 298 298 298 298 298 298 299 300 301 300 299 299 299 299 299 299 299 298 298 298 298 299 299 300 300 300 300 300 299 299 299 298 298 298 298 298 298 298 298 298 298 298 298 298 298 298 298 298 298 298 298 297 297 296 296 295 295 295 295 295 295 294 294 293 294 293 293 293 292 292
302 302 302 302 302 301 301 301 300 300 300 300 299 299 299 299 298 298 298 299 299 299 300 300 300 300 301 301 300 300 300 300 299 299 299 299 300 300 300 300 300 299 299 299 299 299 298 298 298 298 298 298 298 298 298 298 298 298 298 298 298 298 298 298 298 298 298 297 297 296 296 295 295 295 295 295 294 294 294 294 294 294 294 293 293
302 301 301 301 301 301 300 300 300 299 299 299 299 300 299 299 298 298 298 299 299 300 300 300 300 301 301 301 301 301 300 300 300 299 299 300 300 300 300 299 299 299 299 299 299 299 299 298 298 298 298 298 298 298 298 298 298 298 298 298 298 298 298 298 298 298 298 298 297 297 296 296 295 295 295 295 295 295 294 294 294 294 294 294 293
301 301 301 301 301 301 300 300 300 299 299 299 299 299 299 299 299 299 299 299 299 300 300 300 301 301 301 301 301 301 300 300 300 300 300 300 300 300 300 299 299 299 299 299 299 299 299 298 298 298 298 298 298 298 298 298 298 298 298 298 298 298 298 298 298 298 298 298 298 297 297 297 296 296 295 295 295 295 294 294 294 294 294 294 294
301 301 301 301 301 301 301 300 300 300 299 299 299 299 298 298 299 299 299 299 300 300 300 301 301 301 301 301 301 301 300 300 300 300 300 300 300 300 299 299 299 299 299 299 299 299 298 299 299 299 299 299 299 299 299 299 299 299 299 299 299 299 298 298 298 298 298 298 298 298 298 297 297 297 296 295 295 295 295 295 294 294 294 294 294
301 301 301 301 301 301 301 300 300 300 299 299 299 299 299 299 299 299 299 300 301 301 302 302 302 302 301 300 300 300 300 299 299 299 299 299 299 299 299 298 298 298 299 299 299 299 299 299 299 299 299 299 299 299 299 299 299 299 299 299 299 299 299 298 298 298 298 298 297 297 297 297 297 297 297 297 296 295 295 295 295 294 294 294 294
Wind_Speed
23 24 23 23 23 23 22 22 22 22 21 20 20 20 20 21 21 21 21 20 20 19 19 20 20 20 19 19 19 19 19 19 18 18 19 19 20 22 22 22 22 21 20 19 19 20 21 21 21 20 20 20 20 19 19 18 18 18 17 18 19 18 16 13 9 15 28 31 30 33 35 33 34 35 34 36 36 35 36 36 35 34 34 35 37
24 24 24 23 23 23 23 23 23 22 22 21 21 21 21 21 21 21 21 21 20 19 19 20 19 19 19 19 19 19 19 19 18 17 18 20 21 21 21 21 21 20 19 19 19 19 20 20 20 19 19 20 20 20 20 19 19 19 19 19 21 21 18 17 15 14 22 32 34 34 35 34 34 35 34 34 36 36 36 37 36 35 35 36 38
25 24 23 23 23 23 24 25 24 23 23 22 22 22 22 22 22 22 21 21 20 19 19 19 19 19 19 19 20 19 19 18 17 16 17 19 20 20 19 19 19 19 18 18 18 18 18 19 19 18 19 20 21 21 20 20 20 20 21 21 21 22 21 20 19 16 19 29 34 34 35 35 34 35 35 34 34 35 36 36 36 37 38 38 37
25 24 24 24 24 25 26 26 25 24 23 23 23 23 23 23 23 22 21 20 19 19 18 19 19 19 20 20 20 20 19 18 16 15 16 16 18 18 17 16 16 16 16 17 17 17 17 17 18 18 19 21 21 21 20 20 21 21 21 22 22 22 23 22 22 21 21 26 32 34 34 34 34 35 35 34 35 36 36 35 35 38 39 38 37
26 25 26 26 26 27 27 26 25 25 25 24 24 24 24 25 23 21 20 20 19 19 19 19 19 19 20 20 20 20 18 17 16 16 15 15 15 15 14 14 14 14 14 15 15 16 16 16 17 18 19 21 21 21 21 21 21 22 22 23 23 23 24 23 24 24 23 26 31 34 34 33 33 34 34 34 36 38 37 35 35 39 42 40 38
27 27 27 28 28 28 27 27 26 25 25 25 25 25 26 25 24 21 19 19 18 19 19 20 20 20 20 19 19 19 18 16 16 15 15 15 14 13 12 11 11 12 12 12 14 14 15 15 17 18 19 20 20 20 21 21 21 22 23 23 24 24 24 25 25 26 25 25 29 32 34 33 33 34 35 34 35 37 37 36 36 38 41 43 40
28 28 29 29 29 29 28 27 27 26 26 26 26 27 26 25 22 20 18 17 17 19 20 21 20 20 19 19 18 18 17 17 15 15 14 13 12 11 10 9 9 10 10 10 12 13 14 14 15 17 18 18 18 19 20 22 22 22 23 23 24 24 25 26 26 27 26 26 27 29 31 33 32 33 35 36 34 32 32 34 36 37 39 40 40
30 29 29 29 29 29 28 27 27 27 27 27 27 27 26 24 21 19 17 15 16 19 21 22 21 20 19 18 17 17 17 17 15 14 13 12 11 10 8 8 8 8 8 9 11 12 12 13 14 16 16 16 16 18 19 20 21 22 23 23 22 23 25 26 26 27 26 26 27 27 30 32 32 33 37 37 33 29 31 33 34 37 39 38 37
30 30 30 30 29 29 28 28 28 28 28 29 28 27 25 23 20 18 16 15 16 19 21 22 22 21 20 18 17 17 17 17 15 13 13 12 10 9 8 8 7 7 7 8 10 11 11 11 13 15 15 14 15 16 16 17 19 21 22 22 22 22 23 25 25 26 26 26 26 27 27 28 32 34 34 34 31 32 37 37 33 35 38 37 37
31 31 31 30 30 30 29 29 29 29 29 29 29 27 25 22 20 17 15 15 17 19 21 22 22 21 20 19 18 17 17 17 15 13 12 11 10 9 9 8 8 6 6 7 8 9 9 9 11 13 13 13 14 15 15 17 18 20 21 21 21 21 22 23 24 25 25 25 26 27 23 24 32 34 32 34 35 35 38 37 33 35 36 32 32
32 32 31 31 31 31 31 30 30 30 30 30 29 27 25 22 19 16 16 17 18 19 21 21 22 21 20 20 19 18 17 16 15 13 11 10 9 9 9 8 8 7 5 5 6 6 6 7 9 12 12 13 14 15 15 17 19 21 21 20 19 19 20 21 23 24 24 25 27 28 24 25 33 37 35 36 37 36 39 37 33 35 35 28 24
32 32 32 32 32 32 32 31 31 31 31 30 29 27 24 21 19 17 18 19 19 20 20 21 22 21 20 20 19 18 17 16 15 13 11 10 9 8 8 7 6 6 6 4 3 3 5 7 8 10 12 13 14 15 16 18 20 21 21 21 19 18 18 19 21 23 24 24 27 30 29 28 33 37 38 38 36 37 39 36 31 32 34 29 24
32 32 33 34 34 33 33 33 33 32 32 31 29 27 24 21 19 18 19 20 20 20 20 21 21 21 20 20 19 18 17 15 14 13 11 10 9 8 7 6 5 6 6 4 2 1 4 6 7 9 10 12 14 16 17 19 21 21 21 21 20 19 19 19 20 21 24 25 26 30 32 31 33 37 39 38 37 36 34 32 30 31 33 32 30
33 33 34 35 35 34 34 34 34 33 33 31 29 26 24 21 19 19 20 21 21 21 21 21 21 21 20 20 19 17 16 14 13 12 11 10 8 7 7 6 5 5 6 5 2 1 4 6 7 8 9 12 15 16 18 20 21 21 21 21 21 21 21 21 21 21 24 26 27 30 33 32 33 37 38 37 36 35 34 33 32 33 35 36 35
33 34 35 35 35 36 35 35 34 34 33 32 30 27 24 21 20 20 20 21 21 21 22 22 21 21 20 19 19 17 15 14 12 11 10 9 8 7 7 6 6 5 6 6 3 2 3 4 7 8 8 11 14 15 18 20 20 21 22 22 22 23 22 22 22 22 24 27 28 30 33 34 35 37 38 37 36 36 36 36 35 36 37 36 34
33 34 35 35 35 36 36 36 35 35 34 33 31 28 25 22 21 21 21 21 21 21 22 22 22 21 20 19 18 17 15 13 11 10 9 8 8 8 8 7 6 5 6 5 3 1 2 4 6 7 8 10 12 14 16 18 19 21 23 23 23 23 23 23 23 22 23 25 27 30 32 34 36 37 38 38 36 37 37 35 35 37 35 30 28
31 33 34 36 37 38 38 37 36 36 35 34 32 29 26 24 22 21 22 22 22 22 22 22 22 21 20 19 18 16 15 12 10 8 8 8 9 10 9 8 7 6 6 5 3 1 1 3 5 6 7 9 11 13 15 16 19 22 24 25 25 25 25 25 24 24 24 25 26 29 32 35 37 39 40 39 38 38 35 31 33 37 32 22 20
30 32 33 35 35 35 35 36 36 36 36 34 33 30 28 25 22 21 22 22 23 23 23 22 22 20 19 18 16 14 13 11 8 7 7 7 8 10 10 9 8 7 6 5 3 2 1 3 4 5 7 8 9 12 14 15 19 22 24 25 26 26 27 27 26 26 26 26 27 30 33 36 38 40 41 41 41 40 36 31 34 36 31 22 21
30 32 32 31 30 30 32 32 33 34 34 34 33 31 29 26 22 21 21 22 23 23 23 22 21 19 18 16 14 13 12 11 9 7 7 7 7 8 9 9 9 8 7 5 5 4 2 2 3 5 6 7 8 11 13 14 17 20 22 25 26 27 28 28 27 27 28 29 30 32 34 37 39 40 42 42 42 42 39 36 36 33 30 28 27
30 31 31 32 32 33 34 34 33 33 33 33 33 31 29 26 23 22 22 22 23 24 23 22 21 19 18 16 15 14 13 12 10 8 7 7 7 7 8 8 8 9 8 7 6 5 3 2 3 4 6 6 7 9 12 14 15 18 21 23 25 26 28 29 28 27 27 29 31 33 35 38 39 41 42 43 44 44 41 39 36 33 31 31 31
30 31 32 34 34 35 35 36 36 35 34 33 33 31 29 27 25 24 24 24 25 25 23 22 21 19 18 17 16 14 13 12 10 9 7 6 6 7 7 7 8 8 8 8 7 5 3 3 3 4 5 6 6 8 10 13 14 16 19 21 23 26 28 29 29 29 28 29 30 32 35 37 39 41 42 44 45 44 43 41 39 36 34 32 32
31 33 34 35 35 35 35 35 35 34 34 34 33 32 30 27 26 25 25 26 27 26 25 23 21 20 18 16 15 14 13 11 10 9 7 6 7 8 8 9 9 9 9 7 5 3 3 4 4 4 5 6 7 8 9 11 13 15 17 20 23 26 28 30 31 31 31 31 31 33 35 37 39 41 43 44 45 45 44 43 42 40 38 35 32
33 34 35 35 34 34 34 34 34 34 34 34 34 33 31 29 27 26 27 28 28 27 26 24 21 19 17 16 14 13 12 11 10 9 7 6 8 10 11 11 10 9 7 6 4 3 3 4 4 5 6 6 8 9 9 10 12 14 16 19 21 24 27 30 32 32 33 33 32 33 34 36 38 40 42 44 45 45 45 45 45 44 42 39 33
33 34 35 35 34 34 34 35 35 34 34 34 34 33 32 31 30 28 28 30 30 28 26 24 22 19 18 16 14 12 11 10 9 8 7 7 8 11 11 11 9 8 6 5 3 3 4 5 5 6 7 7 8 9 10 10 11 12 15 18 20 23 26 29 31 33 33 34 33 32 33 34 36 38 40 42 43 43 44 46 46 45 44 41 36
35 35 35 35 35 35 35 36 35 35 35 35 34 34 34 33 32 30 30 31 31 29 26 24 22 20 19 17 15 13 11 9 8 7 7 8 9 11 11 11 9 8 6 4 4 4 5 5 6 7 7 8 9 10 10 11 11 12 14 16 19 21 24 27 30 32 33 33 32 32 32 33 34 35 37 40 41 41 43 45 45 46 46 44 40
35 35 35 35 35 35 35 34 34 35 36 35 35 34 34 34 34 33 32 32 31 29 27 25 23 22 21 19 17 14 12 10 8 7 6 7 9 11 11 11 10 8 6 5 5 5 6 6 7 8 8 9 9 10 11 12 12 12 13 14 17 20 22 24 27 29 30 31 31 32 32 32 32 33 35 38 40 41 42 42 43 45 47 45 42
33 33 34 34 34 35 35 33 33 33 34 34 33 33 34 34 34 34 34 33 32 30 28 27 25 24 22 21 18 16 14 12 10 9 8 8 9 11 11 11 10 8 6 5 6 7 7 7 8 9 9 9 10 11 11 12 13 13 13 14 15 18 20 22 23 25 28 30 31 32 32 32 32 33 35 37 39 40 41 40 40 42 45 44 40
33 32 33 33 33 34 34 33 33 33 33 33 32 32 32 33 34 35 36 36 35 33 31 29 28 26 24 22 20 18 17 15 13 11 10 9 9 10 12 11 10 9 7 7 8 8 9 8 8 9 10 10 10 11 11 12 13 13 14 14 15 17 19 20 22 24 26 29 30 31 33 33 33 33 35 36 37 39 40 40 39 40 42 42 38
31 31 31 31 32 32 32 33 34 34 32 32 32 32 33 33 34 34 35 35 36 35 34 32 29 26 24 22 20 20 19 16 14 12 11 9 9 10 10 11 10 9 8 9 9 9 9 9 9 10 10 10 11 12 12 13 14 14 15 15 16 17 18 20 21 23 25 27 29 30 31 33 33 32 33 35 37 38 39 39 39 39 39 38 36
29 29 30 30 31 31 31 31 32 32 31 31 30 29 30 31 32 32 32 33 34 33 31 28 25 23 22 21 19 18 16 12 10 11 12 12 11 10 10 11 11 11 10 11 11 10 9 9 9 10 11 11 12 13 13 14 15 16 17 17 17 18 19 20 21 22 23 25 28 29 30 31 32 32 32 33 35 37 38 38 39 38 37 35 33
29 28 29 30 31 31 30 30 31 31 31 31 31 29 28 28 28 29 29 30 31 29 27 23 21 20 20 19 18 17 15 13 11 10 12 13 13 12 12 12 13 14 13 13 14 12 10 10 10 11 11 12 13 14 14 15 15 16 17 18 18 18 18 20 20 21 22 23 26 27 28 29 30 31 31 31 32 35 37 38 39 38 36 34 32
30 29 30 30 32 33 32 32 32 31 29 29 30 31 30 27 25 25 26 27 27 27 26 24 22 22 21 19 18 18 17 16 14 12 12 14 15 13 13 13 15 16 16 16 16 15 12 11 12 12 12 13 14 14 15 16 16 16 17 18 19 19 18 19 20 20 21 22 24 26 27 28 29 30 30 30 30 32 35 37 38 37 36 35 33
32 31 31 31 33 33 32 31 31 30 28 29 29 30 30 29 26 25 25 25 26 27 26 26 25 25 24 22 22 20 17 16 16 15 14 15 15 14 14 14 16 17 18 18 18 17 15 13 13 13 14 14 15 15 16 17 17 17 17 18 19 19 19 19 19 20 20 20 22 24 26 27 27 28 30 30 29 30 31 33 36 36 35 35 33
32 32 32 33 33 32 30 30 30 29 28 29 29 29 30 30 29 28 25 24 24 26 27 27 27 27 26 26 24 21 19 18 17 16 16 15 15 15 16 16 16 17 18 18 19 19 17 15 15 15 15 15 16 16 17 18 18 18 19 19 19 19 19 19 19 20 20 20 21 22 24 26 26 26 28 29 29 29 30 31 33 34 34 33 33
29 29 31 32 33 33 32 33 32 30 28 28 28 29 29 29 29 29 28 26 25 25 26 27 27 27 26 25 23 22 21 20 19 18 16 15 16 17 17 17 18 18 19 19 20 20 19 18 17 17 17 17 17 17 18 19 19 20 20 20 21 20 20 20 20 20 21 21 20 21 22 24 25 25 26 27 27 28 29 29 30 31 31 31 31
27 28 30 31 32 32 32 31 30 28 28 27 28 29 30 29 29 29 29 28 26 23 22 22 23 23 23 24 24 23 22 21 20 19 17 17 17 18 19 19 19 19 20 20 21 21 20 20 19 19 18 18 18 18 19 20 20 21 21 21 22 22 21 21 20 21 21 21 20 20 20 21 23 24 25 25 26 26 27 28 29 30 30 30 31
28 29 30 31 31 31 30 28 26 25 25 26 27 29 29 30 30 30 29 27 25 24 23 21 21 22 23 24 24 23 22 21 22 20 19 18 19 19 19 19 19 20 20 21 22 21 21 21 20 20 20 20 19 19 19 20 21 21 22 22 22 22 22 22 21 20 21 21 20 20 19 20 21 22 23 24 24 25 26 27 28 29 30 30 30
29 29 31 31 31 30 28 26 25 24 24 26 28 29 29 29 30 29 28 27 27 27 25 24 23 24 25 26 25 23 22 23 23 22 21 20 21 21 21 20 20 21 21 22 22 22 22 21 21 21 21 21 21 20 20 21 22 22 22 22 23 23 23 23 22 20 20 21 20 19 19 18 19 20 21 22 23 23 23 24 26 28 30 30 30
27 28 30 31 31 31 30 28 27 27 27 27 28 28 28 29 29 29 28 28 28 28 26 25 25 26 26 26 25 24 23 24 25 24 23 22 22 22 21 21 21 22 22 22 23 23 23 22 21 21 21 22 21 21 22 22 22 22 22 23 23 24 24 24 23 21 20 20 20 19 19 18 18 18 20 20 21 22 21 22 24 25 27 28 29
27 28 30 31 32 31 31 30 29 28 28 28 29 29 29 29 30 29 28 27 27 28 27 27 27 27 26 26 26 26 27 27 27 26 25 24 23 23 22 22 22 22 22 22 23 23 23 23 22 21 21 21 21 20 20 21 21 22 22 22 23 23 24 24 24 23 22 21 20 20 19 18 17 17 18 19 20 20 20 20 21 22 23 26 27
27 28 29 31 31 31 30 29 29 29 29 30 30 30 30 30 31 30 29 27 28 28 29 28 28 27 26 25 26 27 28 28 28 27 26 25 24 24 23 22 22 22 22 22 22 23 23 23 23 23 22 22 20 19 19 19 20 20 21 21 22 23 24 24 25 24 23 22 21 20 19 18 17 17 17 18 19 19 20 20 20 19 20 22 24
28 29 30 31 31 30 29 29 28 27 28 29 30 31 31 31 30 30 29 29 29 29 29 29 28 27 26 26 26 28 28 28 27 26 25 24 24 24 23 23 22 22 23 23 23 23 24 25 24 24 24 23 21 19 19 19 19 20 20 21 22 23 24 25 26 26 26 24 23 21 20 19 18 17 17 17 17 18 19 20 20 19 19 19 21
29 30 31 31 31 31 31 30 29 27 28 29 30 31 31 31 30 29 28 29 29 29 29 29 28 27 27 27 27 27 28 28 27 26 25 23 23 23 23 23 23 23 24 24 25 25 26 26 25 24 23 22 20 19 19 19 19 20 21 22 23 24 25 27 27 28 28 27 24 22 21 20 19 18 17 16 16 17 19 19 20 20 20 19 19
29 30 31 32 32 31 30 30 29 28 29 30 30 31 31 31 30 29 28 28 29 30 29 29 28 28 28 27 26 27 28 28 27 26 25 24 23 23 24 24 24 24 25 25 24 24 25 24 22 21 20 19 19 19 19 19 20 21 23 24 26 27 27 28 28 28 29 28 26 25 24 22 21 20 19 17 16 17 18 19 19 20 21 20 19
30 31 31 32 31 30 29 29 28 27 27 28 29 29 28 28 28 28 29 29 29 29 29 29 28 28 27 26 25 26 27 27 27 26 25 24 24 24 25 24 24 25 25 24 23 23 22 21 20 19 19 19 19 20 20 21 22 23 24 26 27 28 29 29 29 29 29 29 28 26 25 24 23 22 21 19 17 17 17 18 18 19 20 20 20
31 31 32 33 32 31 30 30 29 28 28 28 28 27 27 28 29 30 30 31 30 29 29 29 28 27 26 25 25 26 26 26 26 26 25 25 25 25 25 24 24 24 24 22 21 20 20 19 18 18 19 19 20 21 22 22 23 25 26 27 29 29 30 30 30 30 29 28 27 26 24 24 24 23 22 21 19 18 18 18 18 18 19 19 20
31 31 32 33 32 31 30 29 29 29 29 28 28 28 28 29 30 30 30 30 30 29 28 27 26 24 24 24 25 27 27 27 26 26 26 26 26 25 24 23 22 22 21 20 19 19 19 18 18 19 19 20 21 22 23 24 24 25 27 28 29 30 30 29 29 29 27 26 25 25 24 23 23 23 23 23 22 20 19 18 18 18 18 18 19
30 30 30 30 30 29 28 27 27 28 28 27 28 29 29 29 29 29 28 28 28 27 27 25 23 22 22 23 25 27 27 27 28 28 28 27 26 24 23 22 21 20 20 19 19 19 19 19 19 20 20 20 21 21 21 22 23 24 26 27 27 28 28 27 26 25 24 23 23 24 24 23 22 22 22 23 24 23 22 21 20 19 18 18 18
29 29 29 29 29 28 28 27 27 27 27 26 27 27 27 26 26 26 27 27 27 26 24 22 20 21 23 25 26 27 27 27 27 28 27 26 25 24 24 22 20 20 19 19 19 19 19 19 19 20 20 20 20 20 21 22 23 24 25 26 26 26 25 24 23 23 22 22 22 22 22 23 23 22 22 22 23 24 25 24 23 21 20 19 20
29 29 29 29 28 27 28 28 27 27 27 26 25 25 24 24 24 25 26 25 24 21 19 18 18 21 23 26 27 27 26 25 25 24 24 23 23 23 23 21 20 20 20 19 19 18 18 19 19 19 19 19 19 20 22 23 24 24 25 25 26 25 24 22 21 21 22 22 22 21 22 23 23 23 23 22 23 24 26 26 26 25 23 22 21
28 28 27 27 27 26 26 27 26 26 25 25 24 23 23 22 22 22 21 19 17 16 16 17 19 22 24 25 25 24 23 22 21 21 21 21 21 21 21 20 20 19 19 18 18 18 18 18 18 18 18 18 18 20 21 22 22 22 22 23 24 24 22 20 20 21 23 24 24 24 24 24 24 24 24 24 24 24 25 26 27 27 26 25 24
Wind_Direction
176 175 174 175 174 173 174 173 171 169 166 164 163 163 165 165 163 162 162 163 163 161 158 155 152 150 147 145 143 139 136 132 128 122 115 111 110 107 102 97 93 91 87 80 73 67 64 64 64 63 61 57 51 45 39 32 26 20 15 7 3 1 348 329 294 295 316 325 325 328 334 334 333 335 334 333 335 335 333 332 331 329 327 325 323
175 173 172 174 175 174 173 172 170 168 165 165 165 166 167 165 164 164 164 164 166 165 160 158 156 154 152 150 148 144 140 135 131 125 117 113 112 108 102 98 95 91 86 79 72 66 64 65 66 64 58 51 44 38 31 26 21 16 13 8 2 1 356 339 321 302 311 324 328 329 334 334 331 334 335 331 331 332 330 330 330 328 326 324 321
175 174 174 175 175 173 171 170 169 168 166 167 168 169 168 167 166 167 166 165 166 166 163 161 160 159 156 154 151 149 144 138 133 127 121 117 114 110 104 99 95 91 85 79 71 65 64 66 66 60 51 43 37 33 28 23 18 13 9 7 2 359 358 348 334 318 308 319 327 329 331 333 330 331 333 331 330 330 328 328 328 326 324 322 320
174 175 174 172 171 170 169 169 169 168 168 170 171 171 170 169 169 169 168 167 167 167 165 164 164 162 159 156 154 152 147 141 135 128 125 122 118 113 108 102 97 91 85 79 71 63 63 66 63 53 43 37 32 27 25 21 16 12 8 5 1 356 354 351 343 333 318 316 324 329 329 329 329 331 333 332 331 330 328 328 327 326 324 321 319
173 173 171 169 168 168 168 169 170 170 171 172 173 173 172 171 170 170 169 169 169 169 167 167 167 166 162 159 156 154 150 144 138 131 128 127 124 119 113 107 101 95 89 80 71 63 63 63 57 45 36 31 27 21 19 18 14 11 7 2 358 353 349 349 346 340 329 319 322 328 330 329 329 332 334 333 331 330 329 329 328 326 325 322 320
172 171 170 168 167 168 169 171 172 172 173 174 174 174 173 171 171 172 172 172 172 172 171 170 171 169 165 161 158 155 153 148 142 136 133 133 132 128 121 114 108 101 94 83 71 64 62 60 49 39 32 25 20 17 14 13 11 9 5 359 355 351 348 349 347 343 337 328 324 326 329 330 329 331 335 336 332 329 328 327 328 327 326 324 322
171 170 170 169 169 170 172 173 174 175 175 175 175 174 173 172 173 174 175 176 177 177 176 174 173 171 167 165 163 159 156 153 148 143 142 140 139 139 134 127 121 109 98 86 74 64 60 56 43 33 29 23 17 16 13 9 7 5 2 357 353 351 350 349 348 344 339 333 329 326 327 330 329 329 334 337 335 332 330 327 326 326 326 325 324
171 171 170 170 171 172 174 175 176 176 176 175 175 173 173 174 175 175 176 179 182 182 180 177 174 172 169 168 166 163 161 159 154 150 150 149 148 150 149 145 138 123 107 90 75 67 60 50 38 30 26 22 18 17 13 7 3 0 358 356 353 352 351 349 348 345 340 334 331 329 328 330 331 332 335 339 338 335 333 329 322 319 322 324 323
172 172 173 173 173 174 175 176 176 176 176 175 174 173 173 175 175 176 177 181 182 181 181 179 175 172 170 169 167 166 165 163 159 156 155 156 155 155 158 160 155 142 120 98 79 70 62 45 33 29 25 21 17 14 10 6 2 358 355 355 355 354 353 351 348 345 341 336 331 332 332 330 333 334 335 338 337 332 331 328 318 314 320 322 323
174 174 174 175 174 175 175 175 176 175 175 174 174 173 174 175 175 177 178 180 179 178 178 178 176 173 171 170 168 167 167 166 163 161 161 161 159 154 155 161 165 159 129 102 85 69 56 39 28 24 20 16 13 10 6 2 359 356 355 356 357 358 355 352 350 346 341 336 333 333 331 328 332 334 332 335 335 332 330 326 317 318 324 324 325
176 176 176 176 175 175 175 175 175 175 175 174 174 174 174 174 175 175 176 176 175 174 176 175 174 174 173 171 170 168 168 168 167 167 168 168 168 160 155 158 167 169 148 109 89 64 40 28 23 16 11 10 8 6 2 358 356 356 359 2 3 4 0 354 351 349 343 337 334 335 331 327 331 333 332 333 334 332 329 325 320 323 329 329 327
177 178 178 176 175 175 176 175 175 175 174 174 174 174 174 173 173 173 174 174 173 172 173 173 172 173 174 172 171 170 170 169 171 173 175 176 177 170 159 156 163 173 171 140 98 53 15 16 19 11 8 7 2 359 357 355 355 356 1 8 9 9 9 3 356 352 347 340 336 336 335 330 331 334 334 333 332 330 328 326 322 324 328 329 325
179 179 178 177 176 176 176 176 175 174 174 174 174 174 174 172 172 174 175 175 173 171 171 171 172 173 175 174 173 172 171 172 174 179 182 183 184 181 176 171 168 174 178 166 135 23 357 9 13 7 5 3 357 356 354 353 355 358 4 10 13 13 13 11 7 0 354 349 340 339 342 337 332 334 337 336 332 329 326 324 323 324 326 326 322
179 179 178 177 177 176 176 176 175 174 174 174 174 174 174 174 174 177 177 175 172 171 170 171 172 173 175 175 173 171 171 171 176 182 185 187 189 190 190 185 175 175 179 179 186 324 352 4 5 5 5 358 354 354 354 354 356 360 4 10 14 15 14 12 11 8 3 358 349 345 349 347 339 338 341 341 337 332 328 324 325 327 326 323 321
179 179 177 177 177 176 176 175 174 174 174 174 175 175 175 175 174 177 178 175 172 171 170 171 171 172 175 175 171 169 168 168 174 182 186 188 193 193 190 186 180 181 185 192 214 302 350 359 360 4 3 357 353 354 354 357 360 2 6 11 13 15 15 12 10 7 4 3 358 354 354 354 350 347 347 347 344 340 336 332 332 332 328 324 325
177 178 177 176 177 177 176 175 174 173 174 174 175 175 174 174 174 176 177 174 172 171 171 171 172 171 173 175 172 168 167 169 177 188 196 201 200 195 191 187 184 183 186 195 214 280 345 354 358 2 358 352 353 357 359 2 6 8 10 12 13 15 16 14 11 9 6 4 3 2 1 0 359 357 355 352 349 347 343 338 337 337 331 326 328
178 178 177 178 178 178 178 176 174 173 174 175 175 175 174 173 173 174 175 173 171 171 171 171 172 173 172 174 174 170 169 173 183 195 202 203 199 195 191 187 183 180 181 186 199 223 324 351 356 356 352 350 354 1 5 9 12 13 12 12 13 14 14 13 13 12 9 7 6 7 7 6 5 3 1 357 355 353 348 340 339 339 334 328 328
179 179 179 179 178 177 177 176 175 174 175 176 176 175 173 172 172 173 175 174 171 171 171 170 172 174 175 176 178 175 172 173 179 186 183 177 181 189 190 187 184 183 182 185 199 211 261 345 353 348 345 348 357 6 11 15 16 15 13 11 10 11 11 10 9 9 9 8 8 9 10 9 7 5 4 1 359 359 354 345 342 340 334 327 326
181 180 179 176 174 176 176 176 177 177 176 178 179 177 173 172 171 172 174 172 168 168 169 169 170 174 177 179 180 177 171 165 164 166 162 159 168 182 189 191 190 190 193 197 201 203 236 320 334 338 340 346 360 11 16 17 17 16 13 11 9 9 9 9 8 6 5 6 6 7 8 9 7 5 4 2 1 1 358 351 347 343 335 331 330
181 179 177 175 177 180 180 181 183 183 181 181 180 178 176 172 170 170 171 168 164 164 166 167 168 171 174 174 172 168 163 157 155 156 154 155 163 173 181 189 193 196 199 197 195 199 223 284 303 321 337 345 358 11 17 16 15 14 14 12 9 7 8 10 10 8 5 4 5 5 6 7 6 4 2 2 2 1 359 356 352 348 342 337 335
179 177 176 177 180 181 182 183 186 186 186 184 182 180 179 175 171 170 170 167 164 162 163 164 165 166 167 167 163 159 156 151 150 151 149 150 158 161 164 172 180 183 183 184 188 199 228 270 288 307 334 347 350 359 9 11 11 12 12 12 10 8 8 10 10 10 8 5 4 5 5 4 5 4 2 1 1 0 358 357 356 354 351 344 338
178 177 177 179 181 182 182 183 184 185 186 185 184 182 180 178 175 173 171 169 165 162 161 161 162 162 162 161 159 156 153 150 147 145 144 148 155 156 155 158 163 165 169 177 188 206 246 277 288 300 326 345 347 346 353 1 5 7 9 10 10 10 10 10 10 10 9 7 5 4 4 2 2 2 1 1 1 360 358 358 359 359 357 353 348
178 178 178 180 182 182 181 181 183 185 186 186 186 184 181 179 178 176 175 172 167 164 162 162 162 164 164 163 161 157 154 150 147 144 143 149 159 160 158 158 161 165 172 183 199 228 268 286 291 298 313 333 343 342 342 347 355 1 4 6 7 8 9 10 10 10 9 7 5 3 2 1 360 360 360 360 0 0 360 359 0 1 360 359 358
176 177 178 180 181 182 182 183 185 189 189 188 187 186 184 182 180 179 179 175 171 169 168 168 171 174 174 172 170 166 160 155 152 149 149 156 165 166 166 166 169 174 183 197 224 254 276 287 294 300 305 317 332 337 336 337 343 351 358 2 3 5 7 8 8 8 8 6 4 1 1 1 0 359 359 360 1 1 1 2 3 2 1 1 1
175 177 179 181 181 182 183 184 187 191 191 189 188 187 185 184 181 181 181 179 177 176 177 179 183 185 187 186 182 176 171 167 164 162 161 167 173 174 173 175 177 182 193 217 249 267 278 287 294 301 304 308 320 329 331 334 337 342 349 356 360 1 4 6 7 7 6 4 1 359 0 2 2 2 2 2 3 2 1 3 4 3 3 3 3
176 177 179 180 181 181 182 183 186 190 191 190 191 191 189 187 184 183 184 185 185 185 186 188 191 195 197 196 191 186 185 184 182 181 180 181 183 183 182 182 184 191 206 233 259 270 278 287 293 299 303 307 314 322 330 336 340 340 343 349 356 359 1 3 5 5 3 2 1 360 1 2 3 4 5 4 4 3 2 1 1 2 3 2 1
176 177 178 179 180 182 183 182 184 188 189 188 190 192 192 191 188 187 187 189 191 193 193 193 196 201 204 203 199 196 196 197 197 199 201 202 197 194 192 192 194 202 216 242 264 272 273 280 290 296 299 304 312 320 328 336 342 343 343 345 351 356 358 360 2 3 2 1 1 1 1 2 4 5 6 6 5 5 4 2 1 1 2 1 359
177 177 178 179 181 183 183 183 184 187 188 188 189 191 191 192 192 193 194 195 195 195 196 198 200 203 205 206 204 203 205 210 210 207 209 212 210 206 204 202 204 210 225 248 265 272 272 274 283 289 294 300 308 317 325 333 340 344 345 346 348 352 354 357 360 2 3 1 1 1 2 2 4 4 5 6 5 5 5 5 4 3 3 3 2
177 178 178 179 180 182 184 185 186 187 188 188 191 195 197 198 199 200 201 201 200 198 197 198 200 203 207 209 209 209 212 216 216 211 212 217 220 220 215 209 210 219 235 253 265 271 271 270 275 282 288 296 305 314 323 331 339 344 347 348 348 349 351 354 356 359 0 0 0 1 0 1 2 3 4 6 7 6 6 5 5 5 5 5 3
176 177 178 179 181 183 184 185 186 186 187 188 190 194 199 202 205 205 205 205 203 201 200 200 201 205 211 216 218 218 219 223 223 219 219 221 224 227 223 215 216 225 239 254 264 271 270 269 272 279 286 293 301 311 319 325 333 340 345 348 348 347 348 350 352 354 356 357 358 359 359 359 360 2 3 4 6 7 7 6 6 7 6 5 1
175 177 179 181 183 184 184 184 186 186 188 190 190 190 193 199 205 208 207 203 199 201 206 209 210 214 220 223 224 226 231 238 241 234 224 222 224 228 227 223 222 229 240 253 262 268 271 270 271 276 285 292 298 307 313 317 324 331 336 341 345 345 345 346 348 350 352 354 356 358 359 359 359 360 1 2 5 7 8 7 7 7 6 5 3
177 179 182 184 185 185 185 186 187 188 190 191 191 190 190 193 200 205 206 202 201 206 213 217 220 226 230 230 231 233 237 239 239 232 222 221 224 228 231 231 230 234 242 250 258 264 268 271 271 274 281 289 296 303 307 310 315 320 324 330 336 340 342 342 343 346 347 349 352 355 357 358 358 359 1 2 4 7 8 7 7 6 5 5 4
183 182 183 184 185 186 186 186 186 188 190 192 192 191 189 190 194 200 203 205 209 215 220 224 229 234 236 236 238 241 245 246 241 230 221 221 225 228 233 235 236 238 243 249 255 260 264 269 272 274 278 285 293 299 303 304 308 312 315 319 324 331 337 339 339 341 344 345 349 352 355 357 357 358 0 2 3 5 8 8 7 6 4 3 2
189 187 186 186 185 185 186 186 187 189 191 194 194 193 191 192 195 196 198 202 209 214 219 224 230 235 237 238 240 243 247 248 242 232 225 224 227 229 232 236 237 240 245 250 254 259 262 266 270 274 278 283 289 295 299 302 304 306 309 313 317 323 331 335 335 337 339 342 346 349 352 355 356 356 359 1 1 2 6 8 8 6 3 1 360
190 189 189 188 186 186 187 188 188 189 191 194 197 196 194 194 196 196 198 201 206 212 218 222 228 233 236 238 240 243 245 242 235 229 227 228 228 227 229 233 237 242 248 253 256 259 261 264 268 271 276 282 286 291 295 299 302 303 305 308 313 318 324 330 333 334 336 338 342 345 347 352 354 354 355 358 0 360 1 5 7 6 3 1 360
189 189 189 189 188 188 188 189 189 190 192 196 199 199 197 196 197 200 202 204 208 215 221 224 227 231 234 235 237 241 242 236 228 225 225 227 229 228 227 231 238 245 251 256 259 260 261 263 266 269 273 278 283 287 292 296 299 301 303 304 307 312 317 322 327 331 332 334 336 339 342 347 352 353 353 355 359 1 359 0 4 7 6 4 2
190 190 190 189 189 188 187 187 190 193 195 198 200 200 199 199 199 200 201 204 210 219 225 226 224 226 229 231 233 236 235 227 222 222 222 225 227 228 229 233 240 246 253 258 261 263 263 264 266 268 271 276 280 285 291 294 296 298 301 302 303 306 309 314 319 324 327 329 331 334 337 340 347 351 351 351 355 359 1 1 2 5 7 7 6
192 193 190 188 187 186 185 185 189 194 198 201 202 201 200 199 199 199 201 206 213 220 225 225 223 225 228 231 232 232 228 221 217 217 219 223 226 228 230 235 239 246 254 260 263 264 265 266 267 269 271 275 280 285 290 293 293 295 298 301 302 303 305 308 313 316 321 325 328 330 332 335 340 346 349 349 350 353 358 2 2 2 4 7 7
192 194 192 189 187 185 184 186 189 194 198 200 201 201 201 199 198 199 203 209 215 220 223 222 223 226 230 230 229 226 222 218 217 219 221 225 228 230 233 237 242 247 255 261 263 265 267 267 269 272 275 279 284 287 289 290 290 292 295 298 300 302 302 305 308 311 315 320 324 326 329 330 333 337 342 346 348 349 352 358 2 2 2 3 3
191 193 192 190 187 186 188 190 191 194 197 199 199 200 202 202 201 202 205 209 214 219 221 221 223 227 228 227 226 223 220 220 224 227 229 230 232 233 236 240 244 250 255 260 262 266 268 270 273 277 281 285 290 291 289 288 287 289 292 295 297 300 301 303 305 307 309 314 319 322 325 328 328 330 335 340 345 347 347 350 356 0 3 3 2
191 191 191 190 188 187 188 190 193 195 198 200 199 199 202 204 205 206 208 211 215 219 221 223 226 229 229 229 230 229 228 230 235 238 239 239 239 239 241 244 247 251 255 259 263 267 270 273 277 281 284 288 292 292 289 287 286 287 291 295 296 297 299 301 302 304 306 309 312 315 320 323 324 324 327 332 338 342 343 344 346 350 357 3 3
193 191 189 187 187 187 187 190 195 198 200 201 202 202 205 207 208 208 212 215 218 221 222 225 229 233 234 235 235 234 235 239 244 246 247 246 244 244 246 248 251 254 257 262 266 270 273 277 281 284 286 288 291 291 288 285 285 287 291 294 296 296 298 300 302 303 303 305 308 310 314 317 319 319 320 324 328 333 338 341 341 342 346 354 360
195 193 189 187 188 189 190 193 196 198 199 202 204 206 208 211 212 213 216 219 220 221 223 226 232 237 239 239 238 238 241 244 246 248 249 248 246 247 249 251 256 259 263 267 270 272 275 278 280 283 285 286 288 288 285 283 285 287 290 292 295 297 298 300 301 303 303 304 305 305 306 309 313 315 316 318 320 323 329 335 338 339 339 341 349
196 193 190 188 189 190 191 193 194 197 200 205 208 209 210 212 215 218 219 220 220 221 224 229 236 240 242 242 241 241 244 246 247 248 249 247 247 249 252 255 260 263 266 269 272 273 276 278 278 279 281 281 281 282 282 281 284 287 289 292 294 296 298 301 303 306 307 305 303 301 300 302 305 307 310 313 314 315 320 327 331 335 336 336 338
197 193 189 187 188 190 191 193 196 199 203 206 208 209 211 214 217 220 221 222 221 222 227 233 238 240 242 245 246 247 250 251 250 250 249 249 250 253 256 260 264 266 267 270 273 275 277 278 276 274 274 274 275 278 280 282 285 287 289 292 294 296 300 304 307 309 308 306 304 303 300 298 298 299 303 308 308 307 312 318 322 327 331 333 333
197 193 189 189 190 191 192 194 197 201 203 204 205 208 211 215 218 220 222 223 223 225 229 233 237 240 245 251 255 256 257 258 255 252 251 252 254 257 260 262 264 265 267 270 273 274 275 274 272 271 270 271 274 277 279 282 286 288 290 293 295 297 301 304 306 308 310 309 308 306 302 297 295 294 296 300 301 301 304 309 312 317 322 326 328
196 193 192 192 192 192 193 196 198 200 203 205 205 207 211 215 217 220 223 224 225 227 231 234 238 245 253 260 263 263 263 262 260 258 257 257 257 260 262 264 264 264 265 266 269 272 275 276 276 277 276 276 277 278 279 281 285 287 289 292 294 296 299 302 304 307 310 311 310 308 304 299 295 292 291 292 294 295 297 301 304 308 312 317 321
195 194 193 193 192 192 193 195 197 199 202 205 207 209 212 215 217 219 222 224 225 227 231 235 242 252 261 266 268 267 266 264 264 263 261 259 259 261 263 264 263 262 263 266 269 274 277 279 280 281 282 282 283 283 282 282 283 284 286 290 292 295 298 300 302 305 307 307 306 305 304 301 297 292 289 288 287 289 292 293 296 300 303 307 312
196 194 193 193 192 193 193 195 198 200 202 205 207 210 213 216 218 220 222 224 226 228 233 240 250 260 267 269 270 270 268 267 266 265 263 260 259 260 261 261 262 263 266 269 272 274 277 280 283 285 287 287 287 287 286 286 286 288 289 291 292 294 296 297 298 299 299 298 298 299 300 300 298 293 289 286 284 285 287 287 289 293 296 297 302
197 196 195 194 194 194 196 198 200 202 204 206 209 212 214 217 220 223 224 226 228 233 240 250 259 266 271 271 271 270 269 267 265 265 264 262 260 259 259 259 262 265 269 272 275 279 282 284 287 288 288 287 286 285 285 285 286 287 288 289 290 293 294 293 291 292 291 291 291 292 293 295 295 293 291 288 284 283 283 284 285 287 288 289 293
197 196 196 196 195 195 196 198 199 201 204 206 209 210 212 215 219 223 225 228 233 241 249 257 265 270 272 271 269 267 265 263 262 263 264 262 259 257 257 260 265 270 275 278 281 282 282 282 283 284 285 285 286 285 285 286 287 288 290 291 292 293 293 290 287 287 286 287 289 290 291 291 292 292 291 290 287 284 283 283 282 282 283 284 286